sat.trackr.live / text

‹ back to catalog

STARLINK-5265

NORAD 55317 · 2023-010BA

PAYLOAD ACTIVE UNKNOWN

§ Identity

Operator
Country
US
Launch date
2023-01-19
Launch site
AFWTR
Launch vehicle
Mass (kg)
RCS (m²)

Purposes: comms

External: N2YO · Heavens-Above · Gunter

§ Orbital elements

Epoch: 2026-09-20T22:00:03.000096Z

Period
95.19 min
Inclination
70.0001°
Eccentricity
0.0001938
Mean motion
15.12809500 rev/d
Perigee alt
526.3 km
Apogee alt
529.0 km
Semi-major
6,905.8 km
B*
2.6257e-3
RAAN
231.9835°
Arg perigee
242.3244°
Mean anomaly
58.2522°
Rev number
566

§ Raw data

STARLINK-52651 55317U 23010BA  26263.91670139  .00046401  00000+0  26257-2 0  99902 55317  70.0001 231.9835 0001938 242.3244  58.2522 15.12809500  5666

JSON: /api/v1/satellites/55317 · /tle

For live sub-satellite position, see the globe view (requires WebGL).

§ Visibility from observer

Set your observer location to see the next 7 days of passes ≥ 10°. The values pass through the URL so the page stays shareable.

No JS? Fill the form by hand. The geolocation button needs JavaScript.